Regional Weather Roundup
Issued by NWS Newport/Morehead, NC

Current Version | Previous Version | Graphics & Text | Print | Product List | Glossary Off
Versions: 1 2 3 4 5 6 7 8 9 10 11 12 13 14 15 16 17 18 19 20 21 22 23 24 25 26 27 28 29 30 31 32 33 34 35 36 37 38 39 40 41 42 43 44 45 46 47 48 49 50

999
ASUS42 KMHX 241013
RWRMHX
WEATHER ROUNDUP FOR EASTERN NORTH CAROLINA
NATIONAL WEATHER SERVICE NEWPORT/MOREHEAD CITY NC
600 AM EDT SUN JUL 24 2016

NOTE: "FAIR" INDICATES FEW OR NO CLOUDS BELOW 12,000 FEET
WITH NO SIGNIFICANT WEATHER AND/OR OBSTRUCTIONS TO VISIBILITY

NCZ015>017-031-032-045>047-102-103-241100-
NORTH COAST

CITY           SKY/WX    TMP DP  RH WIND       PRES   REMARKS
EDENTON        CLEAR     79  75  87 SW8       30.00S
ELIZABETH CITY CLEAR     77  74  90 SW8       29.99R
KITTY HAWK     MOSUNNY   79  75  87 SW7       29.98F
MANTEO           N/A     78  78  99 W9        30.00S

$$

NCZ045>047-081-094-103-104-241100-
CENTRAL COAST

CITY           SKY/WX    TMP DP  RH WIND       PRES   REMARKS
FRISCO         PTCLDY    80  77  90 W6        30.01S

$$

NCZ095-097-098-100-101-241100-
SOUTHERN COAST

CITY           SKY/WX    TMP DP  RH WIND       PRES   REMARKS
BEAUFORT       PTCLDY    82  77  84 SW7       30.01S
CEDAR ISLAND   NOT AVBL
JACKSONVILLE   CLEAR     77  74  90 CALM      30.00S
PINEY ISLAND   NOT AVBL
WILMINGTON     PTCLDY    77  75  93 CALM      30.01S


$$

NCZ011>013-027>030-043-044-078>080-089-090>093-098-241100-
COASTAL PLAIN

CITY           SKY/WX    TMP DP  RH WIND       PRES   REMARKS
AHOSKIE        CLEAR     73  72  97 CALM      30.00R
CLINTON        CLEAR     73  73 100 CALM      30.01S
ELIZABETHTOWN  CLEAR     75  75 100 CALM      30.01S FOG
GOLDSBORO      PTCLDY    73  73 100 CALM      30.00R
GREENVILLE     CLEAR     73  72  94 CALM      30.03R
HAVELOCK       CLEAR     75  73  93 CALM      30.02R
KENANSVILLE    NOT AVBL
KINSTON        PTCLDY    73  71  95 CALM      30.02R
NEW BERN       PTCLDY    76  74  93 SW3       30.02S
RICHLANDS      CLEAR     74  74 100 SW3       30.01S FOG
ROCKY MOUNT    PTCLDY    73  72  96 S3        30.00R
WASHINGTON     MOCLDY    75  73  91 SW6       30.01S
WHITEVILLE     CLEAR     76  74  95 CALM      30.01R

$$

AMZ130-135-150-152-154-156-158-170-250-252-270-ANZ085-086-088-633-658-670-241100-
MARINE OBSERVATIONS

STATION/POSITION TIME  TEMP    WIND        PRES    WAVE   SWELL
                       AIR SEA DIR/SP/G            HT/PER HT/PER
                 (UTC) (F)     (DEG/KT/KT) (MB)    (FT/S) (FT/S)
CHESAPEAKE LIGHT NOT AVBL
64 E VA BEACH    0950   81 81  240/ 16/ 17 1014.4    3/ 5   2/ 9
DUCK             0900   81 61  230/ 14/ 16 1014.7
2 E DUCK         0911      68                N/A     1/ 9
OREGON INLET     0900   81 85  220/ 13/ 16 1015.4
13E OREGON INLT  1000      82                N/A     2/ 8   2/ 8
HATTERAS CG      0900   80 83  230/  5/  8 1015.8
DIAMOND BUOY     0950   83 85  250/ 12/ 16 1016.5    3/ 4   2/10
CAPE LOOKOUT     1000   82     240/  7/  8 1016.0
BEAUFORT LAB     0900   83 83  230/  3/  9 1015.4
30 SE NEW RVR IN 0908   84 85  230/ 12/ 16 1016.1
30 SE NEW RVR IN 0925      85                N/A     2/ 4
27 SE WRIGHTSVLE 0908   84 84  230/  8/ 12 1016.5
5 SE WRIGHTSVLE  0908   83 83  240/  6/  8 1017.2
225 S CAPE HAT   0950   82 84     CALM     1017.5    3/ 8
41 SE CHARLESTON 0950   85 86  240/ 10/ 12 1015.8    3/ 8   2/ 8

$$




USA.gov is the U.S. government's official web portal to all federal, state and local government web resources and services.